Volver al catálogo

STARLINK-11289

ActivoComunicacionesVLEO
NORAD 60991·PAYLOAD·🇺🇸 United States

Lanzado Sep 5, 2024 desde Cape Canaveral Space Force Station

Loading…

Próximos Pases (próximas 24 horas)

TLE

ActualizadoSource: CelesTrak SupGP

Época: Sep 14, 2026, 14:54 UTC

1 60991C 24158B   26257.62131944  .00018609  00000+0  15313-3 0  2573
2 60991  53.1569  69.6898 0001114  92.3886 186.2926 15.69724832    17

Sigue STARLINK-11289 en tiempo real con AllMySat

Download on the App Store